HAZ8067 ZSHC-ZUUU

Flight info

Callsign HAZ8067
Flight time N/A
Altitude 32100
Route ABVIL H24 ISNIR H161 P366 H165 IPMUG W611 BIVAV W138 DYG H35 P448 H134 P686 H135 UDOXO W179 IGNAK
Aircraft A320/M-SDE3FGHIRWY/LB1

Departure

Time N/A
Airport Hangzhou Xiaoshan International Airport (ZSHC)

Arrival

Time 2026-04-27 08:59
Airport Chengdu Shuangliu International Airport (ZUUU)
Time Latitude Longitude Altitude Speed Heading
2026-04-27 08:25 28.04767 105.55145 32039 ft 460 kts 258°
2026-04-27 08:25 28.03501 105.48052 32035 ft 459 kts 261°
2026-04-27 08:26 28.02380 105.40936 32043 ft 459 kts 261°
2026-04-27 08:26 28.01201 105.33836 32048 ft 459 kts 260°
2026-04-27 08:27 27.99981 105.26744 32036 ft 459 kts 263°
2026-04-27 08:27 27.99874 105.23155 32037 ft 457 kts 276°
2026-04-27 08:27 28.00526 105.19643 32037 ft 457 kts 289°
2026-04-27 08:28 28.01905 105.16400 32025 ft 459 kts 302°
2026-04-27 08:28 28.03928 105.13605 32023 ft 462 kts 315°
2026-04-27 08:28 28.06490 105.11396 32017 ft 465 kts 326°
2026-04-27 08:28 28.09243 105.09468 32012 ft 466 kts 326°
2026-04-27 08:29 28.14763 105.05610 32031 ft 467 kts 326°
2026-04-27 08:29 28.20293 105.01746 32024 ft 467 kts 326°
2026-04-27 08:30 28.25822 104.97871 32026 ft 467 kts 326°
2026-04-27 08:30 28.31356 104.93986 31669 ft 467 kts 326°
2026-04-27 08:31 28.34097 104.92065 31194 ft 461 kts 326°
2026-04-27 08:31 28.36816 104.90158 30723 ft 458 kts 326°
2026-04-27 08:31 28.39493 104.88278 30266 ft 459 kts 326°
2026-04-27 08:31 28.42212 104.86363 29779 ft 461 kts 326°
2026-04-27 08:32 28.44940 104.84438 29251 ft 463 kts 326°
2026-04-27 08:32 28.47678 104.82502 28726 ft 465 kts 326°
2026-04-27 08:32 28.50432 104.80556 28211 ft 467 kts 326°
2026-04-27 08:32 28.53197 104.78605 27706 ft 469 kts 326°
2026-04-27 08:33 28.55973 104.76646 27204 ft 471 kts 326°
2026-04-27 08:33 28.58761 104.74682 26717 ft 472 kts 326°
2026-04-27 08:33 28.61561 104.72710 26226 ft 474 kts 326°
2026-04-27 08:33 28.64372 104.70728 25771 ft 476 kts 326°
2026-04-27 08:34 28.67193 104.68738 25300 ft 478 kts 326°
2026-04-27 08:34 28.70024 104.66738 24834 ft 480 kts 326°
2026-04-27 08:34 28.72863 104.64727 24384 ft 482 kts 326°
2026-04-27 08:34 28.75715 104.62705 23947 ft 484 kts 326°
2026-04-27 08:35 28.78569 104.60680 23524 ft 483 kts 326°
2026-04-27 08:35 28.81411 104.58660 22998 ft 480 kts 326°
2026-04-27 08:35 28.84235 104.56652 22483 ft 477 kts 326°
2026-04-27 08:35 28.87038 104.54661 21976 ft 473 kts 326°
2026-04-27 08:36 28.89827 104.52690 21478 ft 470 kts 326°
2026-04-27 08:36 28.92595 104.50741 20988 ft 466 kts 326°
2026-04-27 08:36 28.95348 104.48800 20515 ft 463 kts 326°
2026-04-27 08:36 28.98078 104.46872 20041 ft 460 kts 326°
2026-04-27 08:37 29.00785 104.44956 19574 ft 457 kts 326°
2026-04-27 08:37 29.03478 104.43048 19113 ft 454 kts 326°
2026-04-27 08:37 29.05250 104.41794 18820 ft 452 kts 326°
2026-04-27 08:37 29.08811 104.39277 18221 ft 448 kts 326°
2026-04-27 08:38 29.10560 104.38041 17883 ft 446 kts 326°
2026-04-27 08:38 29.13186 104.36183 17368 ft 442 kts 326°
2026-04-27 08:38 29.15784 104.34335 16869 ft 438 kts 326°
2026-04-27 08:38 29.18359 104.32496 16373 ft 434 kts 326°
2026-04-27 08:39 29.20911 104.30673 15879 ft 431 kts 326°
2026-04-27 08:39 29.23442 104.28870 15402 ft 427 kts 326°
2026-04-27 08:39 29.25952 104.27080 14930 ft 423 kts 327°
2026-04-27 08:39 29.28431 104.25284 14463 ft 420 kts 326°
2026-04-27 08:40 29.30840 104.23430 14006 ft 416 kts 324°
2026-04-27 08:40 29.33201 104.21531 13698 ft 413 kts 323°
2026-04-27 08:40 29.35528 104.19618 13440 ft 410 kts 324°
2026-04-27 08:40 29.37836 104.17711 13182 ft 408 kts 324°
2026-04-27 08:41 29.40142 104.15818 12928 ft 407 kts 324°
2026-04-27 08:41 29.42443 104.13945 12671 ft 405 kts 324°
2026-04-27 08:41 29.44741 104.12088 12417 ft 404 kts 325°
2026-04-27 08:41 29.47037 104.10240 12160 ft 402 kts 325°
2026-04-27 08:42 29.49324 104.08400 11920 ft 401 kts 325°
2026-04-27 08:42 29.51607 104.06561 11724 ft 400 kts 325°
2026-04-27 08:42 29.53882 104.04730 11714 ft 399 kts 325°
2026-04-27 08:42 29.56155 104.02899 11719 ft 399 kts 325°
2026-04-27 08:43 29.58432 104.01062 11718 ft 400 kts 325°
2026-04-27 08:43 29.60706 103.99223 11717 ft 400 kts 325°
2026-04-27 08:43 29.62979 103.97382 11608 ft 400 kts 325°
2026-04-27 08:43 29.65246 103.95544 11405 ft 399 kts 325°
2026-04-27 08:44 29.67512 103.93707 11223 ft 399 kts 326°
2026-04-27 08:44 29.69780 103.91874 11029 ft 398 kts 326°
2026-04-27 08:44 29.72051 103.90046 10836 ft 397 kts 328°
2026-04-27 08:44 29.74426 103.88541 10646 ft 394 kts 337°
2026-04-27 08:45 29.76999 103.87507 10460 ft 392 kts 347°
2026-04-27 08:45 29.79680 103.86990 10285 ft 389 kts 356°
2026-04-27 08:45 29.82379 103.86911 10093 ft 387 kts
2026-04-27 08:45 29.85053 103.86868 9907 ft 378 kts
2026-04-27 08:46 29.87624 103.86814 9703 ft 361 kts
2026-04-27 08:46 29.90080 103.86760 9488 ft 345 kts
2026-04-27 08:46 29.92432 103.86706 9296 ft 331 kts
2026-04-27 08:46 29.94694 103.86658 9084 ft 319 kts
2026-04-27 08:47 29.96871 103.86616 8882 ft 307 kts
2026-04-27 08:47 29.98974 103.86576 8677 ft 297 kts
2026-04-27 08:47 30.01004 103.86538 8534 ft 287 kts
2026-04-27 08:47 30.02968 103.86501 8384 ft 277 kts
2026-04-27 08:48 30.04869 103.86464 8233 ft 269 kts
2026-04-27 08:48 30.06713 103.86427 8083 ft 260 kts
2026-04-27 08:48 30.08484 103.86249 7936 ft 254 kts 346°
2026-04-27 08:48 30.09954 103.85156 7784 ft 256 kts 313°
2026-04-27 08:49 30.10740 103.83319 7627 ft 256 kts 294°
2026-04-27 08:49 30.11550 103.81570 7477 ft 239 kts 320°
2026-04-27 08:49 30.12839 103.80477 7325 ft 225 kts 337°
2026-04-27 08:49 30.14251 103.79820 7153 ft 214 kts 351°
2026-04-27 08:50 30.15688 103.79529 6982 ft 206 kts
2026-04-27 08:50 30.17093 103.79534 6823 ft 199 kts
2026-04-27 08:50 30.18444 103.79685 6671 ft 190 kts 12°
2026-04-27 08:50 30.19726 103.79886 6512 ft 183 kts 12°
2026-04-27 08:51 30.20982 103.80089 6346 ft 181 kts 12°
2026-04-27 08:51 30.22229 103.80277 6221 ft 180 kts 12°
2026-04-27 08:51 30.23445 103.80582 6096 ft 178 kts 20°
2026-04-27 08:51 30.24623 103.81036 5971 ft 179 kts 23°
2026-04-27 08:52 30.25770 103.81538 5843 ft 179 kts 24°
2026-04-27 08:52 30.26931 103.82065 5720 ft 180 kts 24°
2026-04-27 08:52 30.28095 103.82601 5592 ft 180 kts 24°
2026-04-27 08:52 30.29261 103.83140 5473 ft 181 kts 24°
2026-04-27 08:53 30.30430 103.83680 5343 ft 181 kts 24°
2026-04-27 08:53 30.31602 103.84223 5226 ft 182 kts 24°
2026-04-27 08:53 30.32780 103.84769 5104 ft 183 kts 24°
2026-04-27 08:53 30.33961 103.85316 4980 ft 183 kts 24°
2026-04-27 08:54 30.35143 103.85863 4872 ft 181 kts 21°
2026-04-27 08:54 30.36305 103.86401 4800 ft 179 kts 22°
2026-04-27 08:54 30.37462 103.86938 4655 ft 179 kts 22°
2026-04-27 08:54 30.38613 103.87472 4451 ft 176 kts 22°
2026-04-27 08:55 30.39733 103.87991 4229 ft 171 kts 21°
2026-04-27 08:55 30.40821 103.88496 4013 ft 166 kts 22°
2026-04-27 08:55 30.41879 103.88987 3803 ft 162 kts 21°
2026-04-27 08:55 30.42915 103.89468 3596 ft 158 kts 21°
2026-04-27 08:56 30.43897 103.89924 3421 ft 145 kts 21°
2026-04-27 08:56 30.44812 103.90349 3223 ft 140 kts 21°
2026-04-27 08:56 30.45701 103.90762 3050 ft 136 kts 20°
2026-04-27 08:56 30.46583 103.91171 2872 ft 136 kts 19°
2026-04-27 08:57 30.48358 103.91996 2509 ft 140 kts 20°
2026-04-27 08:57 30.49266 103.92418 2294 ft 142 kts 21°
2026-04-27 08:57 30.50193 103.92848 2116 ft 142 kts 20°
2026-04-27 08:58 30.51090 103.93266 1879 ft 141 kts 21°
2026-04-27 08:58 30.51993 103.93682 1689 ft 139 kts 21°
2026-04-27 08:58 30.52829 103.94079 1649 ft 118 kts 22°
2026-04-27 08:58 30.53448 103.94368 1646 ft 71 kts 22°
2026-04-27 08:59 30.53787 103.94529 1646 ft 44 kts 21°
2026-04-27 08:59 30.54025 103.94628 1646 ft 30 kts 11°
2026-04-27 08:59 30.54214 103.94619 1646 ft 24 kts 355°
2026-04-27 08:59 30.54369 103.94600 1646 ft 18 kts 355°
2026-04-27 09:00 30.54488 103.94622 1646 ft 17 kts 19°
2026-04-27 09:00 30.54598 103.94678 1646 ft 17 kts 23°
2026-04-27 09:00 30.54712 103.94733 1646 ft 19 kts 23°
2026-04-27 09:00 30.54849 103.94797 1646 ft 23 kts 21°
2026-04-27 09:01 30.54989 103.94861 1646 ft 16 kts 10°
2026-04-27 09:01 30.55076 103.94803 1646 ft 15 kts 350°
2026-04-27 09:01 30.55185 103.94840 1646 ft 17 kts 22°
2026-04-27 09:01 30.55291 103.94889 1647 ft 17 kts 22°
2026-04-27 09:02 30.55398 103.94943 1647 ft 17 kts 26°
2026-04-27 09:02 30.55509 103.94992 1647 ft 17 kts 21°
2026-04-27 09:02 30.55631 103.95049 1647 ft 21 kts 22°
2026-04-27 09:02 30.55770 103.95114 1646 ft 22 kts 19°
2026-04-27 09:03 30.55913 103.95175 1646 ft 22 kts 20°
2026-04-27 09:03 30.56057 103.95237 1646 ft 22 kts 20°
2026-04-27 09:03 30.56201 103.95300 1646 ft 22 kts 21°
2026-04-27 09:03 30.56301 103.95286 1646 ft 15 kts 298°
2026-04-27 09:04 30.56357 103.95126 1646 ft 27 kts 291°
2026-04-27 09:04 30.56428 103.94920 1646 ft 28 kts 291°
2026-04-27 09:04 30.56496 103.94726 1646 ft 26 kts 292°
2026-04-27 09:04 30.56550 103.94571 1646 ft 15 kts 293°
2026-04-27 09:05 30.56640 103.94562 1646 ft 16 kts 21°
2026-04-27 09:05 30.56771 103.94623 1646 ft 19 kts 21°
2026-04-27 09:05 30.56871 103.94688 1646 ft 14 kts 76°
2026-04-27 09:05 30.56842 103.94800 1646 ft 15 kts 113°
2026-04-27 09:06 30.56803 103.94912 1646 ft 13 kts 111°
2026-04-27 09:06 30.56819 103.94984 1646 ft 10 kts 20°
2026-04-27 09:06 30.56882 103.95012 1646 ft 8 kts 21°
2026-04-27 09:06 30.56917 103.95027 1646 ft 1 kts 21°
2026-04-27 09:07 30.56922 103.95030 1646 ft 0 kts 21°
2026-04-27 09:07 30.56923 103.95030 1646 ft 0 kts 21°